Time,TemperatureF,DewpointF,PressureIn,WindDirection,WindDirectionDegrees,WindSpeedMPH,WindSpeedGustMPH,Humidity,HourlyPrecipIn,Conditions,Clouds,dailyrainin,SolarRadiationWatts/m^2,SoftwareType,DateUTC
2013-03-12 00:00:00,61.0,45.7,30.07,East,93,3.5,3.5,57,0.00,-RA,SKC,0.00,0.0,WeatherDisplay:10.37,2013-03-12 06:00:00,
2013-03-12 00:05:00,61.1,46.2,30.07,East,88,3.5,3.5,58,0.00,OVC,SKC,0.00,0.0,WeatherDisplay:10.37,2013-03-12 06:05:00,
2013-03-12 00:10:00,61.2,46.3,30.06,East,98,4.0,4.0,58,0.00,OVC,SKC,0.00,0.0,WeatherDisplay:10.37,2013-03-12 06:10:00,
2013-03-12 00:15:00,61.4,45.6,30.06,East,98,5.8,5.8,56,0.00,OVC,SKC,0.00,0.0,WeatherDisplay:10.37,2013-03-12 06:15:00,
2013-03-12 00:20:00,61.4,46.0,30.06,East,98,4.6,4.6,57,0.00,OVC,SKC,0.00,0.0,WeatherDisplay:10.37,2013-03-12 06:20:00,
2013-03-12 00:25:00,61.5,45.7,30.06,ESE,102,5.8,5.8,56,0.00,OVC,SKC,0.00,0.0,WeatherDisplay:10.37,2013-03-12 06:25:00,
2013-03-12 00:30:00,61.5,45.2,30.06,East,96,6.9,6.9,55,0.00,OVC,SKC,0.00,0.0,WeatherDisplay:10.37,2013-03-12 06:30:00,
2013-03-12 00:35:00,61.5,45.2,30.06,East,92,4.6,4.6,55,0.00,OVC,SKC,0.00,0.0,WeatherDisplay:10.37,2013-03-12 06:35:00,
2013-03-12 00:40:00,61.6,45.3,30.07,East,95,4.6,4.6,55,0.00,OVC,SKC,0.00,0.0,WeatherDisplay:10.37,2013-03-12 06:40:00,
2013-03-12 00:45:00,61.5,45.7,30.07,East,91,5.0,5.0,56,0.00,OVC,SKC,0.00,0.0,WeatherDisplay:10.37,2013-03-12 06:45:00,
2013-03-12 00:50:00,61.5,45.7,30.07,ENE,74,6.0,6.0,56,0.00,OVC,SKC,0.00,0.0,WeatherDisplay:10.37,2013-03-12 06:50:00,
2013-03-12 00:55:00,61.5,44.7,30.05,East,98,6.9,6.9,54,0.00,OVC,SKC,0.00,0.0,WeatherDisplay:10.37,2013-03-12 06:55:00,
2013-03-12 01:00:00,61.5,45.7,30.05,East,97,4.6,4.6,56,0.00,OVC,SKC,0.00,0.0,WeatherDisplay:10.37,2013-03-12 07:00:00,
2013-03-12 01:05:00,61.4,46.0,30.05,ENE,76,6.9,6.9,57,0.00,-RA,SKC,0.00,0.0,WeatherDisplay:10.37,2013-03-12 07:05:00,
2013-03-12 01:10:00,61.3,46.4,30.05,East,97,6.9,6.9,58,0.00,-RA,SKC,0.00,0.0,WeatherDisplay:10.37,2013-03-12 07:10:00,
2013-03-12 01:15:00,61.1,46.7,30.05,East,92,3.5,3.5,59,0.00,-RA,SKC,0.00,0.0,WeatherDisplay:10.37,2013-03-12 07:15:00,
2013-03-12 01:20:00,60.9,46.9,30.05,East,92,4.6,4.6,60,0.00,-RA,SKC,0.00,0.0,WeatherDisplay:10.37,2013-03-12 07:20:00,
2013-03-12 01:25:00,60.8,47.7,30.05,East,100,5.8,5.8,62,0.00,-RA,SKC,0.00,0.0,WeatherDisplay:10.37,2013-03-12 07:25:00,
2013-03-12 01:30:00,60.8,47.7,30.05,East,92,5.8,5.8,62,0.00,-RA,SKC,0.00,0.0,WeatherDisplay:10.37,2013-03-12 07:30:00,
2013-03-12 01:35:00,60.7,48.0,30.05,ESE,103,3.5,3.5,63,0.00,-RA,SKC,0.00,0.0,WeatherDisplay:10.37,2013-03-12 07:35:00,
2013-03-12 01:40:00,60.5,47.8,30.05,SE,133,4.6,4.6,63,0.00,-RA,SKC,0.00,0.0,WeatherDisplay:10.37,2013-03-12 07:40:00,
2013-03-12 01:45:00,60.6,47.5,30.05,ESE,119,5.8,5.8,62,0.00,-RA,SKC,0.00,0.0,WeatherDisplay:10.37,2013-03-12 07:45:00,
2013-03-12 01:50:00,60.5,47.8,30.05,SE,128,3.5,3.5,63,0.00,-RA,SKC,0.00,0.0,WeatherDisplay:10.37,2013-03-12 07:50:00,
2013-03-12 01:55:00,60.4,47.7,30.05,ESE,115,5.8,5.8,63,0.00,-RA,SKC,0.00,0.0,WeatherDisplay:10.37,2013-03-12 07:55:00,
2013-03-12 02:00:00,60.4,47.7,30.05,ESE,117,3.5,3.5,63,0.00,-RA,SKC,0.00,0.0,WeatherDisplay:10.37,2013-03-12 08:00:00,
2013-03-12 02:05:00,60.4,47.7,30.05,ESE,118,5.0,5.0,63,0.00,-RA,SKC,0.00,0.0,WeatherDisplay:10.37,2013-03-12 08:05:00,
2013-03-12 02:10:00,60.3,47.6,30.05,ESE,109,3.5,3.5,63,0.00,-RA,SKC,0.00,0.0,WeatherDisplay:10.37,2013-03-12 08:10:00,
2013-03-12 02:15:00,60.3,48.1,30.05,East,98,3.5,3.5,64,0.00,-RA,SKC,0.00,0.0,WeatherDisplay:10.37,2013-03-12 08:15:00,
2013-03-12 02:20:00,60.3,48.5,30.05,ESE,107,3.5,3.5,65,0.00,-RA,SKC,0.00,0.0,WeatherDisplay:10.37,2013-03-12 08:20:00,
2013-03-12 02:25:00,60.2,48.4,30.05,East,101,4.6,4.6,65,0.00,-RA,SKC,0.00,0.0,WeatherDisplay:10.37,2013-03-12 08:25:00,
2013-03-12 02:30:00,60.2,48.8,30.05,ESE,109,3.5,3.5,66,0.00,-RA,SKC,0.00,0.0,WeatherDisplay:10.37,2013-03-12 08:30:00,
2013-03-12 02:35:00,60.1,47.9,30.05,ESE,113,4.6,4.6,64,0.00,-RA,SKC,0.00,0.0,WeatherDisplay:10.37,2013-03-12 08:35:00,
2013-03-12 02:40:00,60.2,48.0,30.05,ESE,111,3.5,3.5,64,0.00,-RA,SKC,0.00,0.0,WeatherDisplay:10.37,2013-03-12 08:40:00,
2013-03-12 02:45:00,60.3,48.1,30.05,ESE,111,3.5,3.5,64,0.00,-RA,SKC,0.00,0.0,WeatherDisplay:10.37,2013-03-12 08:45:00,
2013-03-12 02:50:00,60.2,47.1,30.05,ESE,114,4.0,4.0,62,0.00,-RA,SKC,0.00,0.0,WeatherDisplay:10.37,2013-03-12 08:50:00,
2013-03-12 02:55:00,60.3,47.2,30.05,ESE,113,4.6,4.6,62,0.00,-RA,SKC,0.00,0.0,WeatherDisplay:10.37,2013-03-12 08:55:00,
2013-03-12 03:00:00,60.5,47.8,30.05,ESE,115,3.5,3.5,63,0.00,-RA,SKC,0.00,0.0,WeatherDisplay:10.37,2013-03-12 09:00:00,
2013-03-12 03:05:00,60.4,48.2,30.05,ESE,108,4.6,4.6,64,0.00,OVC,SKC,0.00,0.0,WeatherDisplay:10.37,2013-03-12 09:05:00,
2013-03-12 03:10:00,60.5,47.8,30.05,ESE,109,4.0,4.0,63,0.00,OVC,SKC,0.00,0.0,WeatherDisplay:10.37,2013-03-12 09:10:00,
2013-03-12 03:15:00,60.5,48.3,30.05,East,94,3.5,3.5,64,0.00,OVC,SKC,0.00,0.0,WeatherDisplay:10.37,2013-03-12 09:15:00,
2013-03-12 03:20:00,60.4,48.6,30.05,SE,134,1.1,1.1,65,0.00,OVC,SKC,0.00,0.0,WeatherDisplay:10.37,2013-03-12 09:20:00,
2013-03-12 03:25:00,60.2,48.0,30.05,ESE,106,2.3,2.3,64,0.00,OVC,SKC,0.00,0.0,WeatherDisplay:10.37,2013-03-12 09:25:00,
2013-03-12 03:30:00,60.1,47.9,30.05,ESE,121,1.1,1.1,64,0.00,OVC,SKC,0.00,0.0,WeatherDisplay:10.37,2013-03-12 09:30:00,
2013-03-12 03:35:00,60.0,48.2,30.05,ESE,121,0.0,0.0,65,0.00,OVC,SKC,0.00,0.0,WeatherDisplay:10.37,2013-03-12 09:35:00,
2013-03-12 03:40:00,59.9,48.5,30.06,ESE,121,0.0,0.0,66,0.00,OVC,SKC,0.00,0.0,WeatherDisplay:10.37,2013-03-12 09:40:00,
2013-03-12 03:45:00,59.7,48.3,30.06,ESE,121,0.0,0.1,66,0.00,OVC,SKC,0.00,0.0,WeatherDisplay:10.37,2013-03-12 09:45:00,
2013-03-12 03:50:00,59.5,48.1,30.06,ESE,121,0.0,0.0,66,0.00,OVC,SKC,0.00,0.0,WeatherDisplay:10.37,2013-03-12 09:50:00,
2013-03-12 03:55:00,59.3,47.9,30.06,ESE,121,0.0,0.0,66,0.00,OVC,SKC,0.00,0.0,WeatherDisplay:10.37,2013-03-12 09:55:00,
2013-03-12 04:00:00,59.2,48.6,30.06,ESE,121,0.0,0.0,68,0.00,OVC,SKC,0.00,0.0,WeatherDisplay:10.37,2013-03-12 10:00:00,
2013-03-12 04:05:00,59.2,48.6,30.06,ESE,121,0.0,0.0,68,0.00,CLR,SKC,0.00,0.0,WeatherDisplay:10.37,2013-03-12 10:05:00,
2013-03-12 04:10:00,59.1,49.3,30.06,West,264,5.8,5.8,70,0.00,CLR,SKC,0.00,0.0,WeatherDisplay:10.37,2013-03-12 10:10:00,
2013-03-12 04:15:00,57.5,48.5,30.06,WSW,244,11.5,11.5,72,0.00,CLR,SKC,0.00,0.0,WeatherDisplay:10.37,2013-03-12 10:15:00,
2013-03-12 04:21:00,56.4,48.2,30.06,WSW,253,2.0,12.0,74,0.00,CLR,SKC,0.00,0.0,WeatherDisplay:10.37,2013-03-12 10:21:00,
2013-03-12 04:26:00,55.8,48.3,30.06,West,269,4.0,4.0,76,0.00,CLR,SKC,0.00,0.0,WeatherDisplay:10.37,2013-03-12 10:26:00,
2013-03-12 04:31:00,55.5,48.4,30.06,WSW,253,1.0,3.0,77,0.00,CLR,SKC,0.00,0.0,WeatherDisplay:10.37,2013-03-12 10:31:00,
2013-03-12 04:36:00,55.3,48.9,30.06,West,263,5.0,5.0,79,0.00,CLR,SKC,0.00,0.0,WeatherDisplay:10.37,2013-03-12 10:36:00,
2013-03-12 04:41:00,55.1,48.7,30.07,West,259,3.0,7.0,79,0.00,CLR,SKC,0.00,0.0,WeatherDisplay:10.37,2013-03-12 10:41:00,
2013-03-12 04:46:00,54.8,48.4,30.07,West,259,3.5,3.5,79,0.00,CLR,SKC,0.00,0.0,WeatherDisplay:10.37,2013-03-12 10:46:00,
2013-03-12 04:51:00,54.7,48.3,30.07,WSW,257,2.0,5.0,79,0.00,CLR,SKC,0.00,0.0,WeatherDisplay:10.37,2013-03-12 10:51:00,
2013-03-12 04:56:00,54.6,48.2,30.07,West,263,3.5,3.5,79,0.00,CLR,SKC,0.00,0.0,WeatherDisplay:10.37,2013-03-12 10:56:00,
2013-03-12 05:01:00,54.6,48.5,30.07,WSW,252,2.0,3.0,80,0.00,CLR,SKC,0.00,0.0,WeatherDisplay:10.37,2013-03-12 11:01:00,
2013-03-12 05:06:00,54.5,48.5,30.07,West,259,3.5,3.5,80,0.00,CLR,SKC,0.00,0.0,WeatherDisplay:10.37,2013-03-12 11:06:00,
2013-03-12 05:11:00,54.7,48.9,30.07,WSW,255,1.0,5.0,81,0.00,CLR,SKC,0.00,0.0,WeatherDisplay:10.37,2013-03-12 11:11:00,
2013-03-12 05:16:00,54.7,49.0,30.08,WSW,258,3.5,3.5,81,0.00,CLR,SKC,0.00,0.0,WeatherDisplay:10.37,2013-03-12 11:16:00,
2013-03-12 05:21:00,54.7,49.0,30.08,WSW,257,1.0,3.0,81,0.00,CLR,SKC,0.00,0.0,WeatherDisplay:10.37,2013-03-12 11:21:00,
2013-03-12 05:26:00,54.7,49.0,30.08,WSW,249,3.5,3.5,81,0.00,CLR,SKC,0.00,0.0,WeatherDisplay:10.37,2013-03-12 11:26:00,
2013-03-12 05:31:00,54.6,48.9,30.08,West,261,1.0,2.0,81,0.00,CLR,SKC,0.00,0.0,WeatherDisplay:10.37,2013-03-12 11:31:00,
2013-03-12 05:36:00,54.5,48.8,30.08,WSW,250,3.5,3.5,81,0.00,CLR,SKC,0.00,0.0,WeatherDisplay:10.37,2013-03-12 11:36:00,
2013-03-12 05:41:00,54.4,48.7,30.08,WSW,251,1.0,4.0,81,0.00,CLR,SKC,0.00,0.0,WeatherDisplay:10.37,2013-03-12 11:41:00,
2013-03-12 05:46:00,54.5,48.8,30.08,West,265,4.6,4.6,81,0.00,CLR,SKC,0.00,0.0,WeatherDisplay:10.37,2013-03-12 11:46:00,
2013-03-12 05:51:00,54.7,49.0,30.08,WSW,251,1.0,5.0,81,0.00,CLR,SKC,0.00,0.0,WeatherDisplay:10.37,2013-03-12 11:51:00,
2013-03-12 05:56:00,54.6,48.9,30.08,WSW,255,2.3,2.3,81,0.00,CLR,SKC,0.00,0.0,WeatherDisplay:10.37,2013-03-12 11:56:00,
2013-03-12 06:01:00,54.5,48.8,30.08,WSW,257,2.0,4.0,81,0.00,CLR,SKC,0.00,0.0,WeatherDisplay:10.37,2013-03-12 12:01:00,
2013-03-12 06:06:00,54.5,48.8,30.08,West,259,3.5,3.5,81,0.00,SCT,SKC,0.00,0.0,WeatherDisplay:10.37,2013-03-12 12:06:00,
2013-03-12 06:11:00,54.5,48.8,30.08,WSW,257,2.0,4.0,81,0.00,CLR,SKC,0.00,0.0,WeatherDisplay:10.37,2013-03-12 12:11:00,
2013-03-12 06:16:00,54.4,48.7,30.09,West,259,4.0,4.0,81,0.00,SCT,SKC,0.00,0.0,WeatherDisplay:10.37,2013-03-12 12:16:00,
2013-03-12 06:21:00,54.5,48.8,30.09,West,259,1.0,4.0,81,0.00,CLR,SKC,0.00,0.0,WeatherDisplay:10.37,2013-03-12 12:21:00,
2013-03-12 06:26:00,54.4,48.4,30.09,West,260,3.5,3.5,80,0.00,SCT,SKC,0.00,0.0,WeatherDisplay:10.37,2013-03-12 12:26:00,
2013-03-12 06:31:00,54.3,48.6,30.09,West,260,3.5,3.5,81,0.00,SCT,SKC,0.00,0.0,WeatherDisplay:10.37,2013-03-12 12:31:00,
2013-03-12 06:36:00,54.2,48.2,30.09,WSW,254,3.5,3.5,80,0.00,SCT,SKC,0.00,0.0,WeatherDisplay:10.37,2013-03-12 12:36:00,
2013-03-12 06:41:00,54.3,48.3,30.10,WSW,256,3.5,3.5,80,0.00,SCT,SKC,0.00,0.0,WeatherDisplay:10.37,2013-03-12 12:41:00,
2013-03-12 06:46:00,54.4,48.4,30.10,WSW,255,3.5,3.5,80,0.00,SCT,SKC,0.00,7.0,WeatherDisplay:10.37,2013-03-12 12:46:00,
2013-03-12 06:51:00,54.5,48.5,30.10,WSW,254,1.1,1.2,80,0.00,SCT,SKC,0.00,12.0,WeatherDisplay:10.37,2013-03-12 12:51:00,
2013-03-12 06:56:00,54.4,48.0,30.10,WSW,254,2.3,2.3,79,0.00,SCT,SKC,0.00,18.0,WeatherDisplay:10.37,2013-03-12 12:56:00,
2013-03-12 07:01:00,54.3,47.9,30.10,WSW,254,2.3,2.3,79,0.00,SCT,SKC,0.00,25.0,WeatherDisplay:10.37,2013-03-12 13:01:00,
2013-03-12 07:06:00,54.3,47.9,30.10,WSW,254,1.1,0.0,79,0.00,CLR,SKC,0.00,40.0,WeatherDisplay:10.37,2013-03-12 13:06:00,
2013-03-12 07:11:00,54.4,48.4,30.11,WSW,254,0.0,0.0,80,0.00,BKN,SKC,0.00,60.0,WeatherDisplay:10.37,2013-03-12 13:11:00,
2013-03-12 07:16:00,54.6,48.6,30.11,WSW,254,0.0,0.0,80,0.00,BKN,SKC,0.00,67.0,WeatherDisplay:10.37,2013-03-12 13:16:00,
2013-03-12 07:21:00,54.7,48.6,30.11,WSW,254,1.1,1.1,80,0.00,BKN,SKC,0.00,95.0,WeatherDisplay:10.37,2013-03-12 13:21:00,
2013-03-12 07:26:00,54.9,48.8,30.12,WSW,254,0.0,0.0,80,0.00,BKN,SKC,0.00,123.0,WeatherDisplay:10.37,2013-03-12 13:26:00,
2013-03-12 07:31:00,55.1,49.0,30.12,WSW,254,0.0,1.0,80,0.00,CLR,SKC,0.00,63.0,WeatherDisplay:10.37,2013-03-12 13:31:00,
2013-03-12 07:36:00,55.4,49.3,30.12,WSW,254,0.0,0.0,80,0.00,BKN,SKC,0.00,54.0,WeatherDisplay:10.37,2013-03-12 13:36:00,
2013-03-12 07:41:00,55.6,49.5,30.12,WSW,254,0.0,1.0,80,0.00,CLR,SKC,0.00,56.0,WeatherDisplay:10.37,2013-03-12 13:41:00,
2013-03-12 07:46:00,55.7,49.3,30.12,WSW,254,0.0,0.0,79,0.00,BKN,SKC,0.00,67.0,WeatherDisplay:10.37,2013-03-12 13:46:00,
2013-03-12 07:51:00,55.9,49.4,30.12,WSW,254,0.0,0.0,79,0.00,CLR,SKC,0.00,179.0,WeatherDisplay:10.37,2013-03-12 13:51:00,
2013-03-12 07:56:00,56.2,49.8,30.13,WSW,254,0.0,0.0,79,0.00,BKN,SKC,0.00,113.0,WeatherDisplay:10.37,2013-03-12 13:56:00,
2013-03-12 08:01:00,56.3,49.9,30.13,WSW,254,0.0,0.0,79,0.00,CLR,SKC,0.00,160.0,WeatherDisplay:10.37,2013-03-12 14:01:00,
2013-03-12 08:06:00,56.4,49.3,30.13,WSW,254,0.0,0.0,77,0.00,CLR,SKC,0.00,294.0,WeatherDisplay:10.37,2013-03-12 14:06:00,
2013-03-12 08:11:00,56.5,49.0,30.14,WSW,254,0.0,0.0,76,0.00,CLR,SKC,0.00,315.0,WeatherDisplay:10.37,2013-03-12 14:11:00,
2013-03-12 08:16:00,56.8,49.3,30.14,WSW,254,0.0,0.0,76,0.00,CLR,SKC,0.00,336.0,WeatherDisplay:10.37,2013-03-12 14:16:00,
2013-03-12 08:21:00,57.3,49.8,30.14,WSW,254,0.0,0.0,76,0.00,CLR,SKC,0.00,357.0,WeatherDisplay:10.37,2013-03-12 14:21:00,
2013-03-12 08:26:00,57.3,49.1,30.15,WSW,254,1.1,0.0,74,0.00,CLR,SKC,0.00,374.0,WeatherDisplay:10.37,2013-03-12 14:26:00,
2013-03-12 08:31:00,57.5,48.9,30.15,WSW,254,1.1,1.1,73,0.00,CLR,SKC,0.00,394.0,WeatherDisplay:10.37,2013-03-12 14:31:00,
2013-03-12 08:36:00,57.7,48.7,30.15,WSW,254,2.3,2.3,72,0.00,CLR,SKC,0.00,411.0,WeatherDisplay:10.37,2013-03-12 14:36:00,
2013-03-12 08:41:00,57.9,48.6,30.15,WSW,254,2.3,2.3,71,0.00,CLR,SKC,0.00,427.0,WeatherDisplay:10.37,2013-03-12 14:41:00,
2013-03-12 08:46:00,58.2,48.8,30.15,WSW,254,2.0,2.0,71,0.00,CLR,SKC,0.00,438.0,WeatherDisplay:10.37,2013-03-12 14:46:00,
2013-03-12 08:51:00,58.6,48.8,30.15,WSW,254,1.1,1.1,70,0.00,CLR,SKC,0.00,445.0,WeatherDisplay:10.37,2013-03-12 14:51:00,
2013-03-12 08:57:00,59.0,48.8,30.16,WSW,254,0.0,0.0,69,0.00,CLR,SKC,0.00,478.0,WeatherDisplay:10.37,2013-03-12 14:57:00,
2013-03-12 09:02:00,59.4,48.8,30.16,WSW,254,3.5,3.5,68,0.00,CLR,SKC,0.00,492.0,WeatherDisplay:10.37,2013-03-12 15:02:00,
2013-03-12 09:07:00,59.9,48.9,30.16,West,266,4.6,4.6,67,0.00,CLR,SKC,0.00,512.0,WeatherDisplay:10.37,2013-03-12 15:07:00,
2013-03-12 09:12:00,60.2,48.8,30.16,West,270,3.5,3.5,66,0.00,CLR,SKC,0.00,529.0,WeatherDisplay:10.37,2013-03-12 15:12:00,
2013-03-12 09:17:00,60.5,48.7,30.16,West,271,3.5,3.5,65,0.00,CLR,SKC,0.00,545.0,WeatherDisplay:10.37,2013-03-12 15:17:00,
2013-03-12 09:22:00,60.9,48.6,30.16,West,271,3.5,3.5,64,0.00,CLR,SKC,0.00,563.0,WeatherDisplay:10.37,2013-03-12 15:22:00,
2013-03-12 09:27:00,61.3,49.0,30.16,West,271,3.5,3.5,64,0.00,CLR,SKC,0.00,578.0,WeatherDisplay:10.37,2013-03-12 15:27:00,
2013-03-12 09:32:00,61.5,48.8,30.16,West,271,1.1,1.1,63,0.00,CLR,SKC,0.00,591.0,WeatherDisplay:10.37,2013-03-12 15:32:00,
2013-03-12 09:37:00,61.7,49.8,30.16,West,273,3.5,3.5,65,0.00,CLR,SKC,0.00,606.0,WeatherDisplay:10.37,2013-03-12 15:37:00,
2013-03-12 09:42:00,61.8,49.5,30.16,West,273,2.3,2.3,64,0.00,CLR,SKC,0.00,622.0,WeatherDisplay:10.37,2013-03-12 15:42:00,
2013-03-12 09:47:00,62.0,49.7,30.16,West,269,3.5,3.5,64,0.00,CLR,SKC,0.00,638.0,WeatherDisplay:10.37,2013-03-12 15:47:00,
2013-03-12 09:52:00,62.1,49.8,30.16,West,269,3.5,3.5,64,0.00,CLR,SKC,0.00,650.0,WeatherDisplay:10.37,2013-03-12 15:52:00,
2013-03-12 09:57:00,62.3,49.5,30.17,West,269,2.0,2.0,63,0.00,CLR,SKC,0.00,663.0,WeatherDisplay:10.37,2013-03-12 15:57:00,
2013-03-12 10:02:00,62.7,49.5,30.17,West,269,3.5,3.5,62,0.00,CLR,SKC,0.00,679.0,WeatherDisplay:10.37,2013-03-12 16:02:00,
2013-03-12 10:07:00,63.5,50.7,30.17,SSW,198,2.3,2.3,63,0.00,CLR,SKC,0.00,691.0,WeatherDisplay:10.37,2013-03-12 16:07:00,
2013-03-12 10:12:00,64.8,50.6,30.17,South,173,3.5,3.5,60,0.00,CLR,SKC,0.00,707.0,WeatherDisplay:10.37,2013-03-12 16:12:00,
2013-03-12 10:17:00,65.8,50.6,30.17,SSE,156,4.0,4.0,58,0.00,CLR,SKC,0.00,719.0,WeatherDisplay:10.37,2013-03-12 16:17:00,
2013-03-12 10:22:00,66.6,50.4,30.17,East,91,4.6,4.6,56,0.00,CLR,SKC,0.00,733.0,WeatherDisplay:10.37,2013-03-12 16:22:00,
2013-03-12 10:27:00,66.6,50.4,30.16,ESE,123,3.5,3.5,56,0.00,CLR,SKC,0.00,742.0,WeatherDisplay:10.37,2013-03-12 16:27:00,
2013-03-12 10:32:00,66.8,50.6,30.16,SSE,157,4.6,4.6,56,0.00,CLR,SKC,0.00,758.0,WeatherDisplay:10.37,2013-03-12 16:32:00,
2013-03-12 10:37:00,67.0,50.8,30.16,South,180,4.6,4.6,56,0.00,CLR,SKC,0.00,766.0,WeatherDisplay:10.37,2013-03-12 16:37:00,
2013-03-12 10:42:00,67.2,51.0,30.16,ESE,119,4.6,4.6,56,0.00,CLR,SKC,0.00,777.0,WeatherDisplay:10.37,2013-03-12 16:42:00,
2013-03-12 10:48:00,67.0,50.8,30.16,ESE,117,2.3,2.3,56,0.00,CLR,SKC,0.00,786.0,WeatherDisplay:10.37,2013-03-12 16:48:00,
2013-03-12 10:53:00,67.2,50.5,30.16,SE,134,5.8,5.8,55,0.00,CLR,SKC,0.00,796.0,WeatherDisplay:10.37,2013-03-12 16:53:00,
2013-03-12 10:58:00,67.2,50.5,30.16,SE,131,6.9,6.9,55,0.00,CLR,SKC,0.00,805.0,WeatherDisplay:10.37,2013-03-12 16:58:00,
2013-03-12 11:03:00,66.9,50.7,30.16,ESE,121,5.0,5.0,56,0.00,CLR,SKC,0.00,814.0,WeatherDisplay:10.37,2013-03-12 17:03:00,
2013-03-12 11:08:00,66.7,51.0,30.16,SE,127,3.5,3.5,57,0.00,CLR,SKC,0.00,821.0,WeatherDisplay:10.37,2013-03-12 17:08:00,
2013-03-12 11:13:00,67.2,51.0,30.16,ESE,115,4.6,4.6,56,0.00,CLR,SKC,0.00,831.0,WeatherDisplay:10.37,2013-03-12 17:13:00,
2013-03-12 11:18:00,67.1,51.4,30.16,SSE,157,3.5,3.5,57,0.00,CLR,SKC,0.00,837.0,WeatherDisplay:10.37,2013-03-12 17:18:00,
2013-03-12 11:23:00,67.4,51.2,30.16,SE,144,3.5,3.5,56,0.00,CLR,SKC,0.00,847.0,WeatherDisplay:10.37,2013-03-12 17:23:00,
2013-03-12 11:28:00,67.6,51.3,30.16,ESE,106,2.3,2.3,56,0.00,CLR,SKC,0.00,853.0,WeatherDisplay:10.37,2013-03-12 17:28:00,
2013-03-12 11:33:00,67.0,50.8,30.16,SSE,158,6.9,6.9,56,0.00,CLR,SKC,0.00,863.0,WeatherDisplay:10.37,2013-03-12 17:33:00,
2013-03-12 11:38:00,67.4,51.6,30.16,SSW,198,3.5,3.5,57,0.00,CLR,SKC,0.00,867.0,WeatherDisplay:10.37,2013-03-12 17:38:00,
2013-03-12 11:43:00,67.8,51.5,30.16,South,175,3.5,3.5,56,0.00,CLR,SKC,0.00,870.0,WeatherDisplay:10.37,2013-03-12 17:43:00,
2013-03-12 11:48:00,67.6,51.3,30.16,SSE,153,2.3,2.3,56,0.00,CLR,SKC,0.00,877.0,WeatherDisplay:10.37,2013-03-12 17:48:00,
2013-03-12 11:53:00,67.6,50.9,30.16,SSE,159,6.9,6.9,55,0.00,CLR,SKC,0.00,879.0,WeatherDisplay:10.37,2013-03-12 17:53:00,
2013-03-12 11:58:00,67.4,51.6,30.15,East,96,2.3,2.3,57,0.00,CLR,SKC,0.00,884.0,WeatherDisplay:10.37,2013-03-12 17:58:00,
2013-03-12 12:03:00,67.5,51.2,30.15,ESE,120,5.8,5.8,56,0.00,CLR,SKC,0.00,882.0,WeatherDisplay:10.37,2013-03-12 18:03:00,
2013-03-12 12:08:00,67.2,51.0,30.15,South,169,6.9,6.9,56,0.00,CLR,SKC,0.00,893.0,WeatherDisplay:10.37,2013-03-12 18:08:00,
2013-03-12 12:13:00,67.1,51.4,30.14,SE,132,7.0,7.0,57,0.00,CLR,SKC,0.00,896.0,WeatherDisplay:10.37,2013-03-12 18:13:00,
2013-03-12 12:18:00,67.0,50.3,30.14,East,97,9.2,9.2,55,0.00,CLR,SKC,0.00,900.0,WeatherDisplay:10.37,2013-03-12 18:18:00,
2013-03-12 12:23:00,66.5,50.8,30.14,SE,125,6.9,6.9,57,0.00,CLR,SKC,0.00,896.0,WeatherDisplay:10.37,2013-03-12 18:23:00,
2013-03-12 12:28:00,66.2,50.5,30.14,East,94,6.9,6.9,57,0.00,CLR,SKC,0.00,911.0,WeatherDisplay:10.37,2013-03-12 18:28:00,
2013-03-12 12:33:00,66.2,50.0,30.14,ESE,122,7.0,7.0,56,0.00,CLR,SKC,0.00,907.0,WeatherDisplay:10.37,2013-03-12 18:33:00,
2013-03-12 12:38:00,66.1,49.5,30.14,ESE,119,9.0,9.0,55,0.00,CLR,SKC,0.00,867.0,WeatherDisplay:10.37,2013-03-12 18:38:00,
2013-03-12 12:43:00,66.6,49.4,30.13,ESE,111,9.2,9.2,54,0.00,CLR,SKC,0.00,858.0,WeatherDisplay:10.37,2013-03-12 18:43:00,
2013-03-12 12:48:00,66.7,50.0,30.13,SE,141,9.2,9.2,55,0.00,CLR,SKC,0.00,828.0,WeatherDisplay:10.37,2013-03-12 18:48:00,
2013-03-12 12:53:00,66.6,50.4,30.13,ESE,113,8.1,8.1,56,0.00,CLR,SKC,0.00,893.0,WeatherDisplay:10.37,2013-03-12 18:53:00,
2013-03-12 12:58:00,66.5,50.3,30.12,SE,146,10.4,10.4,56,0.00,CLR,SKC,0.00,905.0,WeatherDisplay:10.37,2013-03-12 18:58:00,
2013-03-12 13:03:00,66.8,50.6,30.12,ESE,118,9.2,9.2,56,0.00,CLR,SKC,0.00,786.0,WeatherDisplay:10.37,2013-03-12 19:03:00,
2013-03-12 13:08:00,66.9,50.2,30.12,ESE,107,10.4,10.4,55,0.00,CLR,SKC,0.00,914.0,WeatherDisplay:10.37,2013-03-12 19:08:00,
2013-03-12 13:13:00,66.6,50.4,30.11,East,101,11.5,11.5,56,0.00,CLR,SKC,0.00,875.0,WeatherDisplay:10.37,2013-03-12 19:13:00,
2013-03-12 13:18:00,66.7,51.5,30.11,East,95,9.2,9.2,58,0.00,CLR,SKC,0.00,846.0,WeatherDisplay:10.37,2013-03-12 19:18:00,
2013-03-12 13:23:00,66.3,51.1,30.11,East,79,9.0,9.0,58,0.00,CLR,SKC,0.00,810.0,WeatherDisplay:10.37,2013-03-12 19:23:00,
2013-03-12 13:28:00,66.4,51.2,30.11,ESE,121,9.2,9.2,58,0.00,CLR,SKC,0.00,821.0,WeatherDisplay:10.37,2013-03-12 19:28:00,
2013-03-12 13:33:00,66.4,50.2,30.11,ESE,116,10.4,10.4,56,0.00,CLR,SKC,0.00,884.0,WeatherDisplay:10.37,2013-03-12 19:33:00,
2013-03-12 13:38:00,66.0,50.8,30.11,East,100,10.4,10.4,58,0.00,CLR,SKC,0.00,860.0,WeatherDisplay:10.37,2013-03-12 19:38:00,
2013-03-12 13:43:00,65.5,51.7,30.10,SE,139,9.2,9.2,61,0.00,CLR,SKC,0.00,800.0,WeatherDisplay:10.37,2013-03-12 19:43:00,
2013-03-12 13:48:00,65.4,51.6,30.10,SE,124,6.0,6.4,61,0.00,CLR,SKC,0.00,823.0,WeatherDisplay:10.37,2013-03-12 19:48:00,
2013-03-12 13:53:00,65.5,52.1,30.10,ESE,109,10.4,10.4,62,0.00,CLR,SKC,0.00,752.0,WeatherDisplay:10.37,2013-03-12 19:53:00,
2013-03-12 13:58:00,65.4,52.5,30.11,East,89,6.9,6.9,63,0.00,CLR,SKC,0.00,853.0,WeatherDisplay:10.37,2013-03-12 19:58:00,
2013-03-12 14:03:00,65.6,52.2,30.11,ESE,121,6.9,6.9,62,0.00,CLR,SKC,0.00,754.0,WeatherDisplay:10.37,2013-03-12 20:03:00,
2013-03-12 14:08:00,65.8,52.0,30.11,ESE,117,9.2,9.2,61,0.00,CLR,SKC,0.00,777.0,WeatherDisplay:10.37,2013-03-12 20:08:00,
2013-03-12 14:13:00,65.9,52.5,30.10,SE,145,8.1,8.1,62,0.00,CLR,SKC,0.00,780.0,WeatherDisplay:10.37,2013-03-12 20:13:00,
2013-03-12 14:18:00,66.1,52.7,30.10,SE,124,10.4,10.4,62,0.00,CLR,SKC,0.00,807.0,WeatherDisplay:10.37,2013-03-12 20:18:00,
2013-03-12 14:23:00,65.7,52.3,30.10,East,84,10.4,10.4,62,0.00,CLR,SKC,0.00,566.0,WeatherDisplay:10.37,2013-03-12 20:23:00,
2013-03-12 14:28:00,65.4,52.0,30.09,SE,136,10.4,10.4,62,0.00,CLR,SKC,0.00,800.0,WeatherDisplay:10.37,2013-03-12 20:28:00,
2013-03-12 14:33:00,65.1,52.2,30.09,ESE,123,11.5,11.5,63,0.00,CLR,SKC,0.00,768.0,WeatherDisplay:10.37,2013-03-12 20:33:00,
2013-03-12 14:38:00,65.4,52.0,30.09,ESE,119,11.5,11.5,62,0.00,CLR,SKC,0.00,717.0,WeatherDisplay:10.37,2013-03-12 20:38:00,
2013-03-12 14:43:00,65.4,52.0,30.09,SE,129,11.5,11.5,62,0.00,CLR,SKC,0.00,789.0,WeatherDisplay:10.37,2013-03-12 20:43:00,
2013-03-12 14:48:00,65.3,51.5,30.09,East,90,10.4,10.4,61,0.00,CLR,SKC,0.00,615.0,WeatherDisplay:10.37,2013-03-12 20:48:00,
2013-03-12 14:53:00,65.3,51.1,30.09,East,82,15.0,15.0,60,0.00,CLR,SKC,0.00,670.0,WeatherDisplay:10.37,2013-03-12 20:53:00,
2013-03-12 14:58:00,65.4,52.5,30.08,East,84,10.0,10.0,63,0.00,CLR,SKC,0.00,752.0,WeatherDisplay:10.37,2013-03-12 20:58:00,
2013-03-12 15:03:00,65.7,52.3,30.08,ESE,123,11.5,11.5,62,0.00,CLR,SKC,0.00,761.0,WeatherDisplay:10.37,2013-03-12 21:03:00,
2013-03-12 15:08:00,65.5,52.1,30.08,ESE,110,11.5,11.5,62,0.00,CLR,SKC,0.00,726.0,WeatherDisplay:10.37,2013-03-12 21:08:00,
2013-03-12 15:13:00,65.5,51.2,30.08,ESE,114,13.8,13.8,60,0.00,CLR,SKC,0.00,657.0,WeatherDisplay:10.37,2013-03-12 21:13:00,
2013-03-12 15:18:00,65.1,51.3,30.08,ESE,104,13.8,13.8,61,0.00,CLR,SKC,0.00,563.0,WeatherDisplay:10.37,2013-03-12 21:18:00,
2013-03-12 15:23:00,65.1,51.8,30.08,East,94,11.5,11.5,62,0.00,CLR,SKC,0.00,703.0,WeatherDisplay:10.37,2013-03-12 21:23:00,
2013-03-12 15:28:00,65.2,51.8,30.08,East,86,12.7,12.7,62,0.00,CLR,SKC,0.00,605.0,WeatherDisplay:10.37,2013-03-12 21:28:00,
2013-03-12 15:33:00,65.2,51.8,30.08,ESE,108,11.5,11.5,62,0.00,CLR,SKC,0.00,367.0,WeatherDisplay:10.37,2013-03-12 21:33:00,
2013-03-12 15:38:00,65.2,51.4,30.08,East,91,13.8,13.8,61,0.00,CLR,SKC,0.00,309.0,WeatherDisplay:10.37,2013-03-12 21:38:00,
2013-03-12 15:43:00,65.1,50.9,30.08,ESE,111,12.7,12.7,60,0.00,CLR,SKC,0.00,403.0,WeatherDisplay:10.37,2013-03-12 21:43:00,
2013-03-12 15:48:00,65.4,51.1,30.08,East,90,10.4,10.4,60,0.00,CLR,SKC,0.00,330.0,WeatherDisplay:10.37,2013-03-12 21:48:00,
2013-03-12 15:53:00,65.2,51.0,30.08,ESE,115,12.7,12.7,60,0.00,CLR,SKC,0.00,330.0,WeatherDisplay:10.37,2013-03-12 21:53:00,
2013-03-12 15:58:00,65.3,51.5,30.08,ENE,75,11.5,11.5,61,0.00,CLR,SKC,0.00,353.0,WeatherDisplay:10.37,2013-03-12 21:58:00,
2013-03-12 16:03:00,65.2,50.0,30.08,SE,124,11.5,11.5,58,0.00,CLR,SKC,0.00,376.0,WeatherDisplay:10.37,2013-03-12 22:03:00,
2013-03-12 16:08:00,65.1,51.3,30.08,East,84,11.5,11.5,61,0.00,CLR,SKC,0.00,353.0,WeatherDisplay:10.37,2013-03-12 22:08:00,
2013-03-12 16:13:00,65.3,51.5,30.08,East,91,11.5,11.5,61,0.00,CLR,SKC,0.00,374.0,WeatherDisplay:10.37,2013-03-12 22:13:00,
2013-03-12 16:18:00,65.5,51.2,30.08,East,88,11.0,11.0,60,0.00,CLR,SKC,0.00,392.0,WeatherDisplay:10.37,2013-03-12 22:18:00,
2013-03-12 16:23:00,65.2,50.5,30.08,East,98,11.5,11.5,59,0.00,CLR,SKC,0.00,334.0,WeatherDisplay:10.37,2013-03-12 22:23:00,
2013-03-12 16:28:00,65.3,50.6,30.08,SE,131,11.5,11.5,59,0.00,CLR,SKC,0.00,301.0,WeatherDisplay:10.37,2013-03-12 22:28:00,
2013-03-12 16:33:00,65.2,50.5,30.08,East,89,13.8,13.8,59,0.00,CLR,SKC,0.00,362.0,WeatherDisplay:10.37,2013-03-12 22:33:00,
2013-03-12 16:38:00,65.1,50.9,30.08,ESE,111,10.4,10.4,60,0.00,CLR,SKC,0.00,288.0,WeatherDisplay:10.37,2013-03-12 22:38:00,
2013-03-12 16:43:00,65.2,50.5,30.08,ENE,78,12.7,12.7,59,0.00,CLR,SKC,0.00,264.0,WeatherDisplay:10.37,2013-03-12 22:43:00,
2013-03-12 16:48:00,65.0,50.8,30.08,ENE,71,11.5,11.5,60,0.00,CLR,SKC,0.00,360.0,WeatherDisplay:10.37,2013-03-12 22:48:00,
2013-03-12 16:53:00,65.2,50.0,30.08,ENE,77,13.8,13.8,58,0.00,CLR,SKC,0.00,279.0,WeatherDisplay:10.37,2013-03-12 22:53:00,
2013-03-12 16:58:00,65.4,49.3,30.09,SE,127,12.7,12.7,56,0.00,CLR,SKC,0.00,211.0,WeatherDisplay:10.37,2013-03-12 22:58:00,
2013-03-12 17:03:00,65.3,50.6,30.09,ESE,118,11.5,11.5,59,0.00,CLR,SKC,0.00,163.0,WeatherDisplay:10.37,2013-03-12 23:03:00,
2013-03-12 17:08:00,65.2,51.4,30.09,SE,125,8.1,8.1,61,0.00,CLR,SKC,0.00,267.0,WeatherDisplay:10.37,2013-03-12 23:08:00,
2013-03-12 17:13:00,65.0,50.3,30.08,ESE,118,13.8,13.8,59,0.00,CLR,SKC,0.00,192.0,WeatherDisplay:10.37,2013-03-12 23:13:00,
2013-03-12 17:18:00,65.0,51.2,30.08,ESE,120,11.5,11.5,61,0.00,CLR,SKC,0.00,149.0,WeatherDisplay:10.37,2013-03-12 23:18:00,
2013-03-12 17:23:00,65.0,50.8,30.08,ESE,116,13.8,13.8,60,0.00,CLR,SKC,0.00,232.0,WeatherDisplay:10.37,2013-03-12 23:23:00,
2013-03-12 17:28:00,65.2,51.0,30.09,ESE,102,11.5,11.5,60,0.00,CLR,SKC,0.00,172.0,WeatherDisplay:10.37,2013-03-12 23:28:00,
2013-03-12 17:33:00,64.9,51.1,30.09,East,98,12.7,12.7,61,0.00,CLR,SKC,0.00,195.0,WeatherDisplay:10.37,2013-03-12 23:33:00,
2013-03-12 17:38:00,65.0,50.8,30.09,ESE,111,12.7,12.7,60,0.00,CLR,SKC,0.00,153.0,WeatherDisplay:10.37,2013-03-12 23:38:00,
2013-03-12 17:43:00,64.9,51.1,30.09,East,90,10.4,10.4,61,0.00,CLR,SKC,0.00,109.0,WeatherDisplay:10.37,2013-03-12 23:43:00,
2013-03-12 17:48:00,65.0,51.2,30.09,ESE,119,10.4,10.4,61,0.00,CLR,SKC,0.00,149.0,WeatherDisplay:10.37,2013-03-12 23:48:00,
2013-03-12 17:53:00,64.9,51.6,30.09,ESE,109,9.2,9.2,62,0.00,CLR,SKC,0.00,130.0,WeatherDisplay:10.37,2013-03-12 23:53:00,
2013-03-12 17:58:00,64.8,51.5,30.10,East,82,11.5,11.5,62,0.00,CLR,SKC,0.00,102.0,WeatherDisplay:10.37,2013-03-12 23:58:00,
2013-03-12 18:03:00,64.7,51.4,30.10,East,94,12.7,12.7,62,0.00,CLR,SKC,0.00,65.0,WeatherDisplay:10.37,2013-03-13 00:03:00,
2013-03-12 18:08:00,64.7,51.4,30.10,ESE,105,11.5,11.5,62,0.00,CLR,SKC,0.00,53.0,WeatherDisplay:10.37,2013-03-13 00:08:00,
2013-03-12 18:13:00,64.7,50.9,30.10,East,90,10.4,10.4,61,0.00,CLR,SKC,0.00,37.0,WeatherDisplay:10.37,2013-03-13 00:13:00,
2013-03-12 18:18:00,64.6,51.3,30.10,East,101,5.8,5.8,62,0.00,CLR,SKC,0.00,28.0,WeatherDisplay:10.37,2013-03-13 00:18:00,
2013-03-12 18:23:00,64.5,51.2,30.10,ESE,108,10.4,10.4,62,0.00,CLR,SKC,0.00,19.0,WeatherDisplay:10.37,2013-03-13 00:23:00,
2013-03-12 18:28:00,64.5,49.4,30.11,SE,137,11.5,11.5,58,0.00,CLR,SKC,0.00,11.0,WeatherDisplay:10.37,2013-03-13 00:28:00,
2013-03-12 18:33:00,64.6,49.0,30.11,East,86,10.4,10.4,57,0.00,CLR,SKC,0.00,5.0,WeatherDisplay:10.37,2013-03-13 00:33:00,
2013-03-12 18:38:00,64.5,49.4,30.11,ESE,119,8.1,8.1,58,0.00,CLR,SKC,0.00,0.0,WeatherDisplay:10.37,2013-03-13 00:38:00,
2013-03-12 18:43:00,64.5,49.8,30.11,SE,127,10.4,10.4,59,0.00,CLR,SKC,0.00,5.0,WeatherDisplay:10.37,2013-03-13 00:43:00,
2013-03-12 18:48:00,64.3,50.1,30.11,SE,128,6.0,6.0,60,0.00,CLR,SKC,0.00,0.0,WeatherDisplay:10.37,2013-03-13 00:48:00,
2013-03-12 18:53:00,64.3,50.6,30.11,ENE,67,6.0,6.0,61,0.00,CLR,SKC,0.00,0.0,WeatherDisplay:10.37,2013-03-13 00:53:00,
2013-03-12 18:58:00,64.2,50.9,30.11,ESE,114,6.9,6.9,62,0.00,CLR,SKC,0.00,0.0,WeatherDisplay:10.37,2013-03-13 00:58:00,
2013-03-12 19:03:00,64.1,50.4,30.11,ESE,103,9.2,9.2,61,0.00,CLR,SKC,0.00,0.0,WeatherDisplay:10.37,2013-03-13 01:03:00,
2013-03-12 19:08:00,64.1,50.8,30.11,East,81,10.4,10.4,62,0.00,CLR,SKC,0.00,0.0,WeatherDisplay:10.37,2013-03-13 01:08:00,
2013-03-12 19:13:00,64.0,50.7,30.11,ESE,105,5.0,5.0,62,0.00,CLR,SKC,0.00,0.0,WeatherDisplay:10.37,2013-03-13 01:13:00,
2013-03-12 19:18:00,64.0,51.1,30.11,East,100,6.9,6.9,63,0.00,CLR,SKC,0.00,0.0,WeatherDisplay:10.37,2013-03-13 01:18:00,
2013-03-12 19:23:00,64.0,51.6,30.11,ESE,106,5.8,5.8,64,0.00,CLR,SKC,0.00,0.0,WeatherDisplay:10.37,2013-03-13 01:23:00,
2013-03-12 19:28:00,63.9,52.3,30.13,East,88,6.9,6.9,66,0.00,CLR,SKC,0.00,0.0,WeatherDisplay:10.37,2013-03-13 01:28:00,
2013-03-12 19:33:00,63.8,51.8,30.13,ESE,105,9.2,9.2,65,0.00,CLR,SKC,0.00,0.0,WeatherDisplay:10.37,2013-03-13 01:33:00,
2013-03-12 19:38:00,63.8,52.2,30.13,SE,125,4.6,4.6,66,0.00,CLR,SKC,0.00,0.0,WeatherDisplay:10.37,2013-03-13 01:38:00,
2013-03-12 19:43:00,63.8,52.2,30.13,ESE,103,9.2,9.2,66,0.00,CLR,SKC,0.00,0.0,WeatherDisplay:10.37,2013-03-13 01:43:00,
2013-03-12 19:48:00,63.7,52.5,30.13,ENE,78,5.8,5.8,67,0.00,CLR,SKC,0.00,0.0,WeatherDisplay:10.37,2013-03-13 01:48:00,
2013-03-12 19:53:00,63.7,52.5,30.13,East,80,5.0,5.0,67,0.00,CLR,SKC,0.00,0.0,WeatherDisplay:10.37,2013-03-13 01:53:00,
2013-03-12 19:58:00,63.6,52.4,30.14,ESE,107,7.0,7.0,67,0.00,CLR,SKC,0.00,0.0,WeatherDisplay:10.37,2013-03-13 01:58:00,
2013-03-12 20:03:00,63.6,52.8,30.14,ENE,76,9.2,9.2,68,0.00,CLR,SKC,0.00,0.0,WeatherDisplay:10.37,2013-03-13 02:03:00,
2013-03-12 20:08:00,63.6,52.8,30.14,ESE,119,6.9,6.9,68,0.00,CLR,SKC,0.00,0.0,WeatherDisplay:10.37,2013-03-13 02:08:00,
2013-03-12 20:13:00,63.6,53.2,30.16,ESE,113,8.1,8.1,69,0.00,CLR,SKC,0.00,0.0,WeatherDisplay:10.37,2013-03-13 02:13:00,
2013-03-12 20:18:00,63.5,53.5,30.16,East,79,3.5,3.5,70,0.00,CLR,SKC,0.00,0.0,WeatherDisplay:10.37,2013-03-13 02:18:00,
2013-03-12 20:23:00,63.5,53.5,30.16,ESE,105,6.9,6.9,70,0.00,CLR,SKC,0.00,0.0,WeatherDisplay:10.37,2013-03-13 02:23:00,
2013-03-12 20:28:00,63.4,53.4,30.16,ESE,103,6.9,6.9,70,0.00,CLR,SKC,0.00,0.0,WeatherDisplay:10.37,2013-03-13 02:28:00,
2013-03-12 20:33:00,63.4,53.8,30.16,East,82,5.0,5.0,71,0.00,CLR,SKC,0.00,0.0,WeatherDisplay:10.37,2013-03-13 02:33:00,
2013-03-12 20:38:00,63.4,54.2,30.16,East,84,5.0,5.0,72,0.00,CLR,SKC,0.00,0.0,WeatherDisplay:10.37,2013-03-13 02:38:00,
2013-03-12 20:43:00,63.4,54.6,30.17,East,92,5.8,5.8,73,0.00,CLR,SKC,0.00,0.0,WeatherDisplay:10.37,2013-03-13 02:43:00,
2013-03-12 20:48:00,63.3,54.5,30.17,East,92,5.8,5.8,73,0.00,CLR,SKC,0.00,0.0,WeatherDisplay:10.37,2013-03-13 02:48:00,
2013-03-12 20:53:00,63.2,54.4,30.17,East,84,4.6,4.6,73,0.00,CLR,SKC,0.00,0.0,WeatherDisplay:10.37,2013-03-13 02:53:00,
2013-03-12 20:58:00,63.2,54.4,30.18,East,84,9.2,9.2,73,0.00,CLR,SKC,0.00,0.0,WeatherDisplay:10.37,2013-03-13 02:58:00,
2013-03-12 21:03:00,63.2,54.4,30.18,East,94,5.8,5.8,73,0.00,CLR,SKC,0.00,0.0,WeatherDisplay:10.37,2013-03-13 03:03:00,
2013-03-12 21:08:00,63.2,54.4,30.18,ESE,103,6.9,6.9,73,0.00,CLR,SKC,0.00,0.0,WeatherDisplay:10.37,2013-03-13 03:08:00,
2013-03-12 21:13:00,63.1,54.7,30.19,ESE,102,5.8,5.8,74,0.00,CLR,SKC,0.00,0.0,WeatherDisplay:10.37,2013-03-13 03:13:00,
2013-03-12 21:18:00,63.1,54.7,30.19,SE,129,6.9,6.9,74,0.00,CLR,SKC,0.00,0.0,WeatherDisplay:10.37,2013-03-13 03:18:00,
2013-03-12 21:23:00,63.1,54.7,30.19,East,82,4.6,4.6,74,0.00,CLR,SKC,0.00,0.0,WeatherDisplay:10.37,2013-03-13 03:23:00,
2013-03-12 21:28:00,63.0,54.9,30.19,SE,137,6.9,6.9,75,0.00,CLR,SKC,0.00,0.0,WeatherDisplay:10.37,2013-03-13 03:28:00,
2013-03-12 21:33:00,63.0,54.9,30.19,ESE,112,10.4,10.4,75,0.00,CLR,SKC,0.00,0.0,WeatherDisplay:10.37,2013-03-13 03:33:00,
2013-03-12 21:38:00,63.0,55.3,30.19,ESE,118,6.9,6.9,76,0.00,CLR,SKC,0.00,0.0,WeatherDisplay:10.37,2013-03-13 03:38:00,
2013-03-12 21:43:00,63.0,55.3,30.19,ESE,118,6.9,6.9,76,0.00,CLR,SKC,0.00,0.0,WeatherDisplay:10.37,2013-03-13 03:43:00,
2013-03-12 21:48:00,63.0,55.3,30.19,ESE,117,5.8,6.2,76,0.00,CLR,SKC,0.00,0.0,WeatherDisplay:10.37,2013-03-13 03:48:00,
2013-03-12 21:53:00,62.9,55.2,30.19,SE,129,6.9,6.9,76,0.00,CLR,SKC,0.00,0.0,WeatherDisplay:10.37,2013-03-13 03:53:00,
2013-03-12 21:58:00,62.9,54.9,30.19,SE,134,9.2,9.2,75,0.00,CLR,SKC,0.00,0.0,WeatherDisplay:10.37,2013-03-13 03:58:00,
2013-03-12 22:00:00,62.9,54.9,30.19,SE,129,8.1,8.1,75,0.00,CLR,SKC,0.00,0.0,WeatherDisplay:10.37,2013-03-13 04:00:00,
2013-03-12 22:05:00,63.0,54.9,30.19,ESE,117,8.1,8.1,75,0.00,-RA,SKC,0.00,0.0,WeatherDisplay:10.37,2013-03-13 04:05:00,
2013-03-12 22:10:00,63.0,55.3,30.19,ESE,123,6.9,6.9,76,0.00,-RA,SKC,0.00,0.0,WeatherDisplay:10.37,2013-03-13 04:10:00,
2013-03-12 22:15:00,63.0,54.9,30.20,SE,126,8.1,8.1,75,0.00,-RA,SKC,0.00,0.0,WeatherDisplay:10.37,2013-03-13 04:15:00,
2013-03-12 22:20:00,63.0,54.9,30.20,ESE,113,5.8,5.8,75,0.00,-RA,SKC,0.00,0.0,WeatherDisplay:10.37,2013-03-13 04:20:00,
2013-03-12 22:25:00,63.0,54.9,30.20,ESE,119,9.2,9.2,75,0.00,-RA,SKC,0.00,0.0,WeatherDisplay:10.37,2013-03-13 04:25:00,
2013-03-12 22:30:00,63.1,54.7,30.20,ESE,109,6.9,6.9,74,0.00,-RA,SKC,0.00,0.0,WeatherDisplay:10.37,2013-03-13 04:30:00,
2013-03-12 22:35:00,63.1,54.7,30.20,ESE,115,10.4,10.4,74,0.00,-RA,SKC,0.00,0.0,WeatherDisplay:10.37,2013-03-13 04:35:00,
2013-03-12 22:40:00,63.2,54.8,30.20,SE,129,13.0,13.0,74,0.00,-RA,SKC,0.00,0.0,WeatherDisplay:10.37,2013-03-13 04:40:00,
2013-03-12 22:45:00,63.2,54.8,30.20,ESE,117,11.5,11.5,74,0.00,-RA,SKC,0.00,0.0,WeatherDisplay:10.37,2013-03-13 04:45:00,
2013-03-12 22:50:00,63.2,54.8,30.20,SSE,159,11.5,11.5,74,0.00,-RA,SKC,0.00,0.0,WeatherDisplay:10.37,2013-03-13 04:50:00,
2013-03-12 22:55:00,63.2,55.1,30.20,ESE,117,9.2,9.2,75,0.00,-RA,SKC,0.00,0.0,WeatherDisplay:10.37,2013-03-13 04:55:00,
2013-03-12 23:00:00,63.2,55.1,30.20,SE,139,10.4,10.4,75,0.00,-RA,SKC,0.00,0.0,WeatherDisplay:10.37,2013-03-13 05:00:00,
2013-03-12 23:05:00,63.2,55.1,30.20,ESE,105,10.4,10.4,75,0.00,-SN,SKC,0.00,0.0,WeatherDisplay:10.37,2013-03-13 05:05:00,
2013-03-12 23:10:00,63.2,55.1,30.20,SE,124,9.2,9.2,75,0.00,-SN,SKC,0.00,0.0,WeatherDisplay:10.37,2013-03-13 05:10:00,
2013-03-12 23:15:00,63.2,55.1,30.20,SE,136,10.4,10.4,75,0.00,-SN,SKC,0.00,0.0,WeatherDisplay:10.37,2013-03-13 05:15:00,
2013-03-12 23:20:00,63.1,55.0,30.20,ESE,103,11.5,11.5,75,0.00,-SN,SKC,0.00,0.0,WeatherDisplay:10.37,2013-03-13 05:20:00,
2013-03-12 23:25:00,63.1,55.0,30.20,SE,136,9.0,9.0,75,0.00,-SN,SKC,0.00,0.0,WeatherDisplay:10.37,2013-03-13 05:25:00,
2013-03-12 23:30:00,63.2,55.1,30.20,East,90,12.7,12.7,75,0.00,-SN,SKC,0.00,0.0,WeatherDisplay:10.37,2013-03-13 05:30:00,
2013-03-12 23:35:00,63.2,55.1,30.20,ESE,111,10.4,10.4,75,0.00,CLR,SKC,0.00,0.0,WeatherDisplay:10.37,2013-03-13 05:35:00,
2013-03-12 23:40:00,63.2,55.1,30.20,ESE,103,6.9,6.9,75,0.00,CLR,SKC,0.00,0.0,WeatherDisplay:10.37,2013-03-13 05:40:00,
2013-03-12 23:45:00,63.1,55.0,30.20,ESE,123,10.4,10.4,75,0.00,CLR,SKC,0.00,0.0,WeatherDisplay:10.37,2013-03-13 05:45:00,
2013-03-12 23:50:00,63.1,55.4,30.20,East,101,9.2,9.2,76,0.00,CLR,SKC,0.00,0.0,WeatherDisplay:10.37,2013-03-13 05:50:00,
2013-03-12 23:55:00,63.1,55.4,30.20,SE,130,9.2,9.2,76,0.00,CLR,SKC,0.00,0.0,WeatherDisplay:10.37,2013-03-13 05:55:00,